[[[{"header":{"parameterUnit":"kt","parameterCategory":2,"dx":1,"dy":1,"la1":30.253999710083008,"la2":30.299108505249023,"lo1":-89.0895004272461,"lo2":-89.04439544677734,"nx":28,"ny":28,"refTime":"2022-09-29T21:00:00:Z","depth":0,"parameterNumber":1,"parameterNumberName":"U-component_of_WINDS"},"data":[-6.0206,-6.044,-6.0391,-6.0634,-6.063,-6.0789,-6.0829,-6.0876,-6.09,-6.1081,-6.1176,-6.1148,-6.1152,-6.1253,-6.1353,-6.1338,-6.1389,-6.1506,-6.1471,-6.0983,-6.0912,-6.0845,-6.079,-6.1516,-6.1516,-6.1987,-6.1992,-6.1995,-5.9853,-5.9853,-5.9966,-6.0043,-6.014,-5.9995,-6.0043,-6.0135,-6.028,-6.031,-6.04,-6.0555,-6.067,-6.0632,-6.0735,-6.0843,-6.0783,-6.0875,-6.0872,-6.0876,-6.0349,-6.0291,-6.0922,-6.0922,-6.0922,-6.0922,-6.0922,-6.0922,-5.9199,-5.934,-5.9358,-5.948,-5.9504,-5.9555,-5.9681,-5.9644,-5.9754,-5.9856,-5.9772,-5.9934,-5.9955,-6.0052,-6.0072,-6.0197,-6.0087,-6.0173,-6.0196,-6.0223,-6.0261,-5.9601,-6.021,-6.0208,-6.0206,-6.0205,-6.0203,0,-5.8707,-5.8656,-5.876,-5.8852,-5.8937,-5.9003,-5.9054,-5.9129,-5.9002,-5.9098,-5.9232,-5.9301,-5.9436,-5.9558,-5.9641,-5.9643,-5.9509,-5.9485,-5.9546,-5.9597,-5.963,-5.9624,-5.8776,-5.9471,-5.9464,-5.9459,-5.9456,-5.9453,-5.8051,-5.8219,-5.8212,-5.8292,-5.8308,-5.8439,-5.8506,-5.8381,-5.8459,-5.8502,-5.8632,-5.8749,-5.8839,-5.9061,-5.9017,-5.9118,-5.9055,-5.9327,-5.907,-5.9108,-5.907,-5.9066,-5.9085,-5.9384,-5.9393,-5.94,-5.9406,0,-5.7688,-5.7604,-5.7849,-5.7824,-5.7822,-5.8006,-5.7984,-5.8118,-5.8066,-5.8245,-5.8279,-5.82,-5.8334,-5.8244,-5.8377,-5.8327,-5.8631,-5.8561,-5.8624,-5.8609,-5.8849,-5.8832,-5.963,-5.9731,-5.8966,-5.8974,-5.898,0,-5.7101,-5.7326,-5.7189,-5.7336,-5.758,-5.7449,-5.7695,-5.7675,-5.769,-5.7829,-5.7656,-5.7791,-5.7653,-5.7774,-5.77,-5.793,-5.7953,-5.7931,-5.7911,-5.7953,-5.7958,-5.8001,-5.7971,-5.7846,-5.7842,-5.7839,-5.7836,0,-5.655,-5.6736,-5.6971,-5.7001,-5.6998,-5.7111,-5.7115,-5.713,-5.7198,-5.7269,-5.7312,-5.7404,-5.7458,-5.7532,-5.7439,-5.7268,-5.7714,-5.7461,-5.7694,-5.7698,-5.7806,-5.7803,-5.8522,-5.7831,-5.783,-5.7828,-5.7827,0,-5.6066,-5.6141,-5.6492,-5.6486,-5.6541,-5.6694,-5.6778,-5.6888,-5.6916,-5.6879,-5.6934,-5.6812,-5.7,-5.6756,-5.7016,-5.6822,-5.6884,-5.6878,-5.6893,-5.6914,-5.6647,-5.7077,-5.7762,-5.7836,-5.692,-5.6913,-5.6906,0,-5.5462,-5.5792,-5.5683,-5.6019,-5.616,-5.5959,-5.6126,-5.6156,-5.6121,-5.6235,-5.6193,-5.6325,-5.6124,-5.6153,-5.6292,-5.6258,-5.6508,-5.6219,-5.6395,-5.6402,-5.6403,-5.703,-5.7161,-5.762,-5.6808,-5.6818,-5.6825,0,-5.4985,-5.4978,-5.5046,-5.5076,-5.5094,-5.521,-5.5401,-5.5502,-5.5585,-5.5634,-5.5796,-5.5973,-5.5831,-5.5881,-5.579,-5.5941,-5.6335,-5.5768,-5.5767,-5.5881,-5.6747,-5.6871,-5.6949,-5.6241,-5.6252,-5.6262,-5.6747,0,-5.4288,-5.4441,-5.4616,-5.4687,-5.4761,-5.4964,-5.4869,-5.4959,-5.4865,-5.4824,-5.5054,-5.5054,-5.5159,-5.5219,-5.5129,-5.5498,-5.5425,-5.5271,-5.5036,-5.5444,-5.5603,-5.5667,-5.4807,-5.4799,-5.4793,-5.4788,0,0,-5.3736,-5.3953,-5.3827,-5.4008,-5.4065,-5.3855,-5.4081,-5.411,-5.4177,-5.4221,-5.4086,-5.4342,-5.435,-5.4641,-5.476,-5.4799,-5.4859,-5.4721,-5.5248,-5.53,-5.5348,-5.5519,-5.5586,-5.4776,-5.4774,-5.4772,-5.477,0,-5.3464,-5.3473,-5.3697,-5.3721,-5.3753,-5.3697,-5.3751,-5.3747,-5.3731,-5.3954,-5.3781,-5.3907,-5.4114,-5.4147,-5.4191,-5.4679,-5.4546,-5.4716,-5.5015,-5.5187,-5.5247,-5.53,-5.5481,-5.5547,-5.4754,-5.4755,-5.4756,0,-5.2984,-5.298,-5.3077,-5.3191,-5.321,-5.3359,-5.3086,-5.3254,-5.3363,-5.3128,-5.3354,-5.3343,-5.3377,-5.3662,-5.3786,-5.3668,-5.4267,-5.4058,-5.4096,-5.4111,-5.4273,-5.4346,-5.441,-5.3563,-5.3559,-5.3556,0,0,-5.2763,-5.2903,-5.286,-5.3125,-5.3149,-5.307,-5.3139,-5.3053,-5.3088,-5.3103,-5.3087,-5.3127,-5.3245,-5.3327,-5.3433,-5.3757,-5.3758,-5.3916,-5.3972,-5.4018,-5.4059,-5.4233,-5.4305,-5.3541,-5.3541,-5.3541,0,0,-5.2658,-5.262,-5.2518,-5.2814,-5.2852,-5.2829,-5.2996,-5.2872,-5.2958,-5.2925,-5.2789,-5.2794,-5.3057,-5.3053,-5.2874,-5.3349,-5.3116,-5.3157,-5.3344,-5.3413,-5.3468,-5.3468,-5.2599,0,0,0,0,0,-5.2333,-5.2623,-5.2532,-5.2567,-5.2712,-5.2879,-5.2897,-5.2791,-5.2629,-5.2763,-5.2729,-5.2579,-5.2929,-5.2767,-5.2805,-5.3009,-5.3359,-5.3391,-5.3422,-5.3738,-5.3812,-5.3875,0,0,0,0,0,0,-5.2346,-5.239,-5.2524,-5.2515,-5.2546,-5.2868,-5.257,-5.2549,-5.2612,-5.258,-5.259,-5.2579,-5.2492,-5.274,-5.2776,-5.2972,-5.2587,-5.3371,-5.3399,-5.3424,-5.3764,-5.3824,-5.3876,0,0,0,0,0,-5.2356,-5.2391,-5.265,-5.251,-5.2538,-5.2465,-5.2558,-5.2538,-5.2585,-5.2534,-5.2518,-5.25,-5.2501,-5.2523,-5.2761,-5.2959,-5.2561,-5.2575,-5.3389,-5.3411,-5.343,-5.3793,0,0,0,0,0,0,-5.2363,-5.2374,-5.2653,-5.2657,-5.2393,-5.2445,-5.245,-5.253,-5.2533,-5.2521,-5.2436,-5.2411,-5.251,-5.2526,-5.2545,-5.296,-5.254,-5.2555,-5.2563,-5.3406,-5.3423,-5.3438,0,0,0,0,0,0,-5.2354,-5.238,-5.2655,-5.2513,-5.25,-5.2428,-5.2432,-5.2617,-5.2536,-5.2434,-5.2413,-5.2425,-5.2483,-5.253,-5.2543,-5.2837,-5.2525,-5.2538,-5.2547,-5.2553,-5.342,-5.3433,0,0,0,0,0,0,-5.2363,-5.2384,-5.2511,-5.2502,-5.2489,-5.253,-5.2589,-5.2743,-5.2414,-5.2437,-5.2381,-5.2366,-5.2491,-5.2502,-5.2543,-5.2833,-5.2836,-5.2525,-5.2534,-5.2541,-5.2545,0,0,0,0,0,0,0,-5.237,-5.2252,-5.2627,-5.2492,-5.2481,-5.2698,-5.2699,-5.27,-5.241,-5.2397,-5.2384,-5.2372,-5.2448,-5.2463,-5.2478,-5.2829,0,0,-5.2524,-5.253,0,0,0,0,0,0,0,0,-5.2241,-5.2249,-5.2628,-5.2628,-5.2629,-5.2698,-5.2699,-5.27,-5.2408,-5.2398,-5.2387,-5.2377,-5.2452,-5.2464,-5.2476,0,0,0,0,0,0,0,0,0,0,0,0,0,0,0,-5.2628,-5.2628,0,-5.2698,-5.2699,-5.2699,-5.2407,-5.2398,-5.2389,-5.2381,-5.2456,-5.2465,-5.2475,0,0,0,0,0,0,0,0,0,0,0,0,0,0,0,0,0,0,0,0,0,0,0,0,0,0,0,0,0,0,0,0,0,0,0,0,0,0,0,0,0,0,0,0,0,0,0,0,0,0,0,0,0,0,0,0,0,0,0,0,0,0,0,0,0,0,0,0,0]}],[{"header":{"parameterUnit":"kt","parameterCategory":2,"dx":1,"dy":1,"la1":30.253999710083008,"la2":30.299108505249023,"lo1":-89.0895004272461,"lo2":-89.04439544677734,"nx":28,"ny":28,"refTime":"2022-09-29T21:00:00:Z","depth":0,"parameterNumber":2,"parameterNumberName":"V-component_of_WINDS"},"data":[-12.9617,-12.9851,-12.9829,-13.0085,-13.0107,-13.0277,-13.0329,-13.0394,-13.0439,-13.0635,-13.0742,-13.074,-13.0772,-13.0892,-13.1004,-13.0999,-13.1048,-13.1148,-13.1125,-13.0703,-13.0643,-13.0585,-13.0529,-13.116,-13.116,-13.1565,-13.1569,-13.1572,-12.9308,-12.9334,-12.9464,-12.9574,-12.9683,-12.9573,-12.9649,-12.9747,-12.99,-12.9957,-13.0062,-13.0231,-13.036,-13.0357,-13.0475,-13.058,-13.0533,-13.0614,-13.0605,-13.0611,-13.0159,-13.01,-13.065,-13.0649,-13.0649,-13.0649,-13.0649,-13.0649,-12.874,-12.8882,-12.8935,-12.9075,-12.9123,-12.9196,-12.9325,-12.932,-12.9443,-12.9568,-12.9513,-12.9684,-12.9734,-12.9863,-12.9899,-13.0029,-12.9934,-13.0013,-13.0033,-13.0054,-13.0081,-12.9499,-13.0048,-13.0046,-13.0044,-13.0043,-13.0042,0,-12.8316,-12.8288,-12.841,-12.8527,-12.8627,-12.8713,-12.8788,-12.8867,-12.8793,-12.8898,-12.9046,-12.9127,-12.9284,-12.9419,-12.9523,-12.9543,-12.9436,-12.9422,-12.9476,-12.9505,-12.9518,-12.9513,-12.8777,-12.9406,-12.94,-12.9396,-12.9393,-12.9391,-12.774,-12.7909,-12.7953,-12.8042,-12.8077,-12.8221,-12.8301,-12.8224,-12.8312,-12.8389,-12.8516,-12.865,-12.8753,-12.8992,-12.8979,-12.9095,-12.9043,-12.9286,-12.906,-12.9081,-12.9046,-12.9037,-12.9052,-12.9332,-12.9339,-12.9346,-12.9351,0,-12.7418,-12.7379,-12.7632,-12.7657,-12.7668,-12.7847,-12.7866,-12.8003,-12.7981,-12.8166,-12.8203,-12.8169,-12.8315,-12.8262,-12.8416,-12.8384,-12.8672,-12.8619,-12.8654,-12.8641,-12.8852,-12.8833,-12.9549,-12.9638,-12.8985,-12.8991,-12.8996,0,-12.691,-12.7134,-12.7062,-12.7211,-12.7455,-12.7372,-12.7615,-12.762,-12.7662,-12.7806,-12.7677,-12.7815,-12.7725,-12.7854,-12.7807,-12.8033,-12.8062,-12.805,-12.8035,-12.8062,-12.8064,-12.8105,-12.8074,-12.7994,-12.7991,-12.7988,-12.7985,0,-12.6409,-12.6633,-12.6874,-12.6918,-12.6966,-12.7081,-12.7105,-12.7151,-12.723,-12.7322,-12.7372,-12.7485,-12.7548,-12.7636,-12.7574,-12.7423,-12.785,-12.7628,-12.7837,-12.7839,-12.7934,-12.7929,-12.8577,-12.798,-12.7979,-12.7978,-12.7977,0,-12.5992,-12.6093,-12.6449,-12.6485,-12.6546,-12.6705,-12.6812,-12.6935,-12.6993,-12.6973,-12.7045,-12.6952,-12.7146,-12.693,-12.7196,-12.7016,-12.7083,-12.7089,-12.7103,-12.7117,-12.6876,-12.7248,-12.7872,-12.7934,-12.713,-12.7123,-12.7116,0,-12.5429,-12.5778,-12.5709,-12.6049,-12.6202,-12.6046,-12.622,-12.6275,-12.6264,-12.639,-12.6374,-12.6519,-12.6347,-12.6384,-12.6522,-12.6512,-12.6747,-12.6479,-12.6657,-12.6665,-12.6647,-12.722,-12.7326,-12.7741,-12.7025,-12.7035,-12.7042,0,-12.4987,-12.5045,-12.5111,-12.5157,-12.5219,-12.5346,-12.5546,-12.5671,-12.5759,-12.5835,-12.5998,-12.6199,-12.6076,-12.614,-12.6075,-12.6223,-12.6585,-12.6071,-12.607,-12.6165,-12.6975,-12.7075,-12.7145,-12.6509,-12.652,-12.6528,-12.697,0,-12.4365,-12.4534,-12.471,-12.4817,-12.4907,-12.5117,-12.5063,-12.5164,-12.5093,-12.5076,-12.5316,-12.5346,-12.5471,-12.5536,-12.5468,-12.5823,-12.5755,-12.5623,-12.5408,-12.5785,-12.5928,-12.5987,-12.5198,-12.5191,-12.5186,-12.5181,0,0,-12.3834,-12.4076,-12.3993,-12.4186,-12.4256,-12.4091,-12.432,-12.4369,-12.4473,-12.4524,-12.4404,-12.4692,-12.4722,-12.5018,-12.5132,-12.5183,-12.524,-12.5111,-12.5606,-12.5654,-12.5698,-12.5852,-12.5915,-12.5171,-12.5169,-12.5167,-12.5165,0,-12.3596,-12.3635,-12.3864,-12.3911,-12.3979,-12.395,-12.4006,-12.4042,-12.4042,-12.4277,-12.4135,-12.4272,-12.4505,-12.4555,-12.4611,-12.5074,-12.4958,-12.5116,-12.5384,-12.5551,-12.5607,-12.5655,-12.5819,-12.5879,-12.5151,-12.5152,-12.5153,0,-12.315,-12.3179,-12.3284,-12.3439,-12.3481,-12.3643,-12.3405,-12.3586,-12.3704,-12.3511,-12.3746,-12.3756,-12.3818,-12.4106,-12.4233,-12.4126,-12.4704,-12.4512,-12.4546,-12.4558,-12.4717,-12.4784,-12.4843,-12.4064,-12.4061,-12.4057,0,0,-12.295,-12.3108,-12.3113,-12.3384,-12.342,-12.3381,-12.3461,-12.3398,-12.3459,-12.3484,-12.3494,-12.3556,-12.3689,-12.378,-12.3902,-12.4227,-12.4231,-12.4381,-12.4432,-12.4474,-12.451,-12.468,-12.4746,-12.4044,-12.4044,-12.4043,0,0,-12.2854,-12.2872,-12.279,-12.3098,-12.3162,-12.3183,-12.3349,-12.3249,-12.3354,-12.3324,-12.3224,-12.3236,-12.3504,-12.3519,-12.3346,-12.3824,-12.3612,-12.3652,-12.3805,-12.3869,-12.3919,-12.391,-12.3104,0,0,0,0,0,-12.2582,-12.2869,-12.2796,-12.2839,-12.3034,-12.3225,-12.3249,-12.3175,-12.3026,-12.3159,-12.3151,-12.3022,-12.3405,-12.325,-12.3293,-12.3486,-12.3871,-12.3902,-12.3931,-12.4203,-12.4271,-12.4328,0,0,0,0,0,0,-12.2599,-12.2652,-12.2787,-12.2822,-12.2865,-12.3214,-12.2946,-12.2933,-12.301,-12.2982,-12.3027,-12.3023,-12.2962,-12.3222,-12.3262,-12.3448,-12.309,-12.3883,-12.3909,-12.3933,-12.4226,-12.4282,-12.4329,0,0,0,0,0,-12.2611,-12.2654,-12.2987,-12.2817,-12.2855,-12.2825,-12.2934,-12.2922,-12.298,-12.2967,-12.2959,-12.2917,-12.2969,-12.2997,-12.3246,-12.3431,-12.3062,-12.3077,-12.39,-12.3921,-12.3939,-12.4253,0,0,0,0,0,0,-12.2621,-12.2643,-12.2992,-12.3001,-12.2704,-12.2804,-12.2817,-12.2913,-12.2957,-12.2953,-12.285,-12.2828,-12.2978,-12.2998,-12.3021,-12.343,-12.3039,-12.3055,-12.3064,-12.3916,-12.3932,-12.3946,0,0,0,0,0,0,-12.2619,-12.2652,-12.2996,-12.2857,-12.2849,-12.2785,-12.2797,-12.2996,-12.296,-12.2837,-12.282,-12.284,-12.2943,-12.3001,-12.3017,-12.3332,-12.3021,-12.3036,-12.3046,-12.3053,-12.3929,-12.3941,0,0,0,0,0,0,-12.2631,-12.2659,-12.2854,-12.2849,-12.284,-12.2929,-12.2959,-12.3162,-12.2844,-12.2838,-12.2813,-12.2799,-12.2949,-12.2964,-12.3016,-12.3324,-12.333,-12.3022,-12.3032,-12.3039,-12.3044,0,0,0,0,0,0,0,-12.2641,-12.2475,-12.2943,-12.2841,-12.2833,-12.3079,-12.3081,-12.3083,-12.2841,-12.2829,-12.2816,-12.2805,-12.2937,-12.2953,-12.2969,-12.3318,0,0,-12.302,-12.3028,0,0,0,0,0,0,0,0,-12.2461,-12.2471,-12.2943,-12.2945,-12.2947,-12.3079,-12.3081,-12.3083,-12.2839,-12.2829,-12.2819,-12.281,-12.2941,-12.2954,-12.2968,0,0,0,0,0,0,0,0,0,0,0,0,0,0,0,-12.2943,-12.2945,0,-12.3079,-12.3081,-12.3082,-12.2837,-12.2829,-12.2821,-12.2813,-12.2945,-12.2956,-12.2967,0,0,0,0,0,0,0,0,0,0,0,0,0,0,0,0,0,0,0,0,0,0,0,0,0,0,0,0,0,0,0,0,0,0,0,0,0,0,0,0,0,0,0,0,0,0,0,0,0,0,0,0,0,0,0,0,0,0,0,0,0,0,0,0,0,0,0,0,0]}]]]